This is the latest recevied weather packets stored in our database for station/object KV9E. If no packets are shown the sender has not sent any weather packets the latest 10 day(s).
| Time | Temp. | Humidity | Pressure | Rain* | Wind** | Luminosity | Snow |
|---|---|---|---|---|---|---|---|
| 1778386077 | 13.89° C | 85% | 1013.2 hPa | 0 mm | - | 0 W/m² | - |
| 1778385774 | 13.89° C | 85% | 1013.2 hPa | 0 mm | - | 0 W/m² | - |
| 1778385469 | 13.89° C | 85% | 1013.2 hPa | 0 mm | - | 0 W/m² | - |
| 1778385165 | 14.44° C | 83% | 1013.4 hPa | 0 mm | - | 0 W/m² | - |
| 1778384861 | 15.56° C | 79% | 1013.3 hPa | 0 mm | - | 0 W/m² | - |
| 1778384559 | 15.56° C | 78% | 1013 hPa | 0 mm | - | 0 W/m² | - |
| 1778384255 | 15.56° C | 78% | 1013.4 hPa | 0 mm | - | 0 W/m² | - |
| 1778383953 | 15.56° C | 78% | 1013.3 hPa | 0 mm | - | 0 W/m² | - |
| 1778383649 | 15° C | 79% | 1013.4 hPa | 0 mm | - | 0 W/m² | - |
| 1778383345 | 15° C | 80% | 1013.3 hPa | 0 mm | - | 0 W/m² | - |
| 1778383040 | 14.44° C | 81% | 1013.1 hPa | 0 mm | - | 0 W/m² | - |
| 1778382737 | 14.44° C | 82% | 1013.1 hPa | 0 mm | - | 0 W/m² | - |
| 1778382435 | 14.44° C | 83% | 1013.4 hPa | 0 mm | - | 0 W/m² | - |
| 1778382134 | 14.44° C | 82% | 1013.3 hPa | 0 mm | - | 0 W/m² | - |
| 1778381831 | 15° C | 79% | 1013 hPa | 0 mm | - | 0 W/m² | - |
| 1778381528 | 15.56° C | 78% | 1012.9 hPa | 0 mm | - | 0 W/m² | - |
| 1778381225 | 15.56° C | 78% | 1012.9 hPa | 0 mm | - | 0 W/m² | - |
| 1778380922 | 15.56° C | 76% | 1012.7 hPa | 0 mm | - | 0 W/m² | - |
| 1778380617 | 16.11° C | 74% | 1012.7 hPa | 0 mm | - | 0 W/m² | - |
| 1778380314 | 16.11° C | 74% | 1012.8 hPa | 0 mm | - | 0 W/m² | - |
| 1778380010 | 16.11° C | 75% | 1012.8 hPa | 0 mm | - | 0 W/m² | - |
| 1778379705 | 16.11° C | 76% | 1012.6 hPa | 0 mm | - | 0 W/m² | - |
| 1778379400 | 16.11° C | 77% | 1012.7 hPa | 0 mm | - | 0 W/m² | - |
| 1778379097 | 16.11° C | 76% | 1012.7 hPa | 0 mm | - | 0 W/m² | - |
| 1778378792 | 16.11° C | 76% | 1012.4 hPa | 0 mm | - | 0 W/m² | - |
* Rain latest hour (hover to see other rain measurements)
** Current wind speed in m/s (hover to see current wind gust speed)